OBJECT T, 57183

Orbit data source: Space-Track

You're viewing an Uncataloged Satellite

Recently launched and/or uncataloged satellites may have evolving metadata. Metadata may include but not limited to: Owner, Maufacturer, Bus, Motor, and Mission.

OBJECT T, 57183 is a satellite in SSO that was launched on Tue, 27 Jun 2023 UTC via a SOYUZ-2-1B launch vehicle from the Vostochny Cosmodrome (VOSTO). Unknown objects in Earth's orbit typically refer to objects detected orbiting the Earth but have not yet been identified or cataloged. These objects could be anything from previously untracked satellites, spent rocket stages, debris from satellite collisions, or even natural meteoroids temporarily captured by Earth's gravity.

Loading next visibility...
Identifier
57183, 2023-091T
Orbit
SSO
Country
Flag of TBDTBD
Related business
None
Manufacturer
Unknown
Mission
Operational Commercial Communications
Bus & Motor
Unknown
Mass
Unknown
Launch date (UTC)
2023-06-27 (3 years ago)
Launch vehicle
SOYUZ-2-1B
Launch site
Vostochny Cosmodrome (VOSTO)
Object type
Unknown
Shape & HBR
Box + 2 Pan, 1.5 m
Radar Cross Section
1.055 m², Medium (>0.1 m² and < 1m²)

Expand to show TLE details & history
Last TLE update: 7 hours ago

TLE from 7 hours ago
0 OBJECT T
1 57183U 23091T   26104.55570137  .00002530  00000-0  12616-3 0  9994
2 57183  97.5149 163.5830 0010491 339.4576  20.6235 15.18427358154315
Epoch: 2026-04-14T13:20Z
TLE epoch observation values (Epoch: 2026-04-14T13:20:12.598Z)
Latitude
0.00001°
Longitude
120.80024°
Altitude
506.914 km
Speed
7.614 km/s
True Right ascension
10h 54m 19s
True Declination
0° 00' 00"
Sunlit
Object was in full shadow at epoch
Visualization orbit readout
Latitude
Unknown
Longitude
Unknown
Altitude
Unknown
Speed
Unknown
Apparent Right ascension
Unknown
Apparent Declination
Unknown
Sunlit
N/A
Visualization observer readout
Local Sidereal Time
02:31:57
Azimuth
Unknown
Elevation
Unknown
Doppler factor
Unknown
Orbital elements
Apogee altitude
514.789 km
Perigee altitude
500.342 km
Semi-major axis
6,885.703 km
Eccentricity
0.00105
Inclination
97.5149°
RAAN
163.583°
Arg. of periapsis
339.4576°
True anomaly
20.6659°
Mean anomaly
20.6235°
Eccentric anomaly
20.64469°
Mean motion
3.79858 °/min
Orbital period
94.77 mins
BSTAR
0.00012616
Loading maneuver chart data...
Computing Atmospheric mass density...
Loading historical data...
Loading historical data...
Loading historical data...
Loading historical data...
Loading historical data...
Loading historical data...
Loading historical data...

Documentation

Showing up to 5 results
|